McGuire AFB, NJ

5:12 AM EDT on August 18, 2017 (GMT -0400)
McGuire Air Force Base

Weather History for KWRI - December, 2013

Change the Weather History Date:

Sunday, December 29, 2013

  Actual Average Record
Temperature  
Mean Temperature 44 °F -  
Max Temperature 51 °F 40 °F 57 °F (1996)
Min Temperature 38 °F 24 °F 14 °F (2000)
Degree Days  
Heating Degree Days 20    
Moisture  
Dew Point 42 °F    
Average Humidity 92    
Maximum Humidity 100    
Minimum Humidity 59    
Precipitation  
Precipitation 0.77 in - - ()
Sea Level Pressure  
Sea Level Pressure 29.66 in    
Wind  
Wind Speed 8 mph (SSE)    
Max Wind Speed 18 mph    
Max Gust Speed 28 mph    
Visibility 7 miles    
Events Rain    
Averages and records for this station are not official NWS values.
T = Trace of Precipitation, MM = Missing Value Source: NWS Daily Summary

Daily Weather History Graph

Daily Weather History Graph

Search for Another Location

Airport or City:

Trip Planner

Search our weather history database for the weather conditions in past years. The results will help you decide how hot, cold, wet, or windy it might be!

Date:

Astronomy

Dec. 29, 2013 Rise Set
Actual Time 7:19 AM EST 4:41 PM EST
Civil Twilight 6:49 AM EST 5:11 PM EST
Nautical Twilight 6:15 AM EST 5:46 PM EST
Astronomical Twilight 5:42 AM EST 6:18 PM EST
Moon 4:00 AM EST (12/29) 2:17 PM EST (12/29)
Length of Visible Light 10h 22m
Length of Day
9h 21m
Waning Crescent, 11% of the Moon is Illuminated
Dec 29
Waning Crescent
Jan 1
New
Jan 7
First Quarter
Jan 15
Full
Jan 24
Last Quarter

Hourly Weather History & Observations

Time (EST) Temp. Windchill Dew Point Humidity Pressure Visibility Wind Dir Wind Speed Gust Speed Precip Events Conditions
12:58 AM 38.5 °F 35.0 °F 26.8 °F 63% 30.07 in 10.0 mi South 4.6 mph - N/A   Mostly Cloudy
1:58 AM 39.0 °F 35.7 °F 27.9 °F 64% 30.08 in 10.0 mi SSW 4.6 mph - N/A   Overcast
2:58 AM 38.5 °F 36.1 °F 27.9 °F 66% 30.06 in 10.0 mi SSE 3.5 mph - N/A   Mostly Cloudy
3:58 AM 38.8 °F - 28.6 °F 67% 30.05 in 10.0 mi South 2.3 mph - N/A   Overcast
4:58 AM 40.3 °F 36.3 °F 29.3 °F 65% 30.04 in 10.0 mi South 5.8 mph - N/A   Mostly Cloudy
5:58 AM 40.5 °F 36.5 °F 29.5 °F 65% 30.01 in 10.0 mi South 5.8 mph - N/A   Scattered Clouds
6:58 AM 41.5 °F 36.4 °F 29.5 °F 62% 30.02 in 10.0 mi South 8.1 mph - N/A   Clear
7:58 AM 42.8 °F 37.5 °F 29.5 °F 59% 30.04 in 10.0 mi South 9.2 mph - N/A   Partly Cloudy
8:06 AM 42.8 °F 38.0 °F 30.2 °F 61% 30.02 in 10.0 mi SSW 8.1 mph - N/A   Scattered Clouds
8:58 AM 40.3 °F 38.2 °F 36.5 °F 86% 30.03 in 9.0 mi SSE 3.5 mph - 0.01 in Rain Light Rain
9:58 AM 40.3 °F 38.2 °F 38.5 °F 93% 29.96 in 7.0 mi East 3.5 mph - 0.07 in Rain Light Rain
10:18 AM 41.0 °F 38.0 °F 39.2 °F 93% 29.91 in 10.0 mi ENE 4.6 mph - N/A   Mostly Cloudy
10:23 AM 41.0 °F 39.0 °F 39.2 °F 93% 29.92 in 10.0 mi East 3.5 mph - N/A Rain Light Rain
10:51 AM 41.0 °F - 39.2 °F 93% 29.88 in 10.0 mi ENE 2.3 mph - N/A   Overcast
10:54 AM 41.0 °F 39.0 °F 39.2 °F 93% 29.89 in 9.0 mi East 3.5 mph - N/A Rain Light Rain
10:58 AM 40.8 °F 38.8 °F 40.1 °F 97% 29.91 in 9.0 mi East 3.5 mph - 0.02 in Rain Light Rain
11:36 AM 41.0 °F 37.1 °F 41.0 °F 100% 29.83 in 6.0 mi NE 5.8 mph - N/A Rain Light Rain
11:58 AM 41.7 °F 38.0 °F 41.5 °F 99% 29.83 in 4.0 mi ENE 5.8 mph - 0.08 in Rain Light Rain
12:01 PM 41.0 °F 37.1 °F 41.0 °F 100% 29.80 in 4.0 mi East 5.8 mph - N/A Rain Light Rain
12:22 PM 42.8 °F 39.3 °F 42.8 °F 100% 29.76 in 3.0 mi ENE 5.8 mph - N/A Rain Light Rain
12:25 PM 42.8 °F 38.0 °F 42.8 °F 100% 29.75 in 3.0 mi ENE 8.1 mph - N/A Rain Light Rain
12:58 PM 43.0 °F 37.2 °F 42.6 °F 99% 29.70 in 4.0 mi East 10.4 mph - 0.10 in Rain Light Rain
1:58 PM 45.1 °F 39.1 °F 44.8 °F 99% 29.60 in 3.0 mi East 12.7 mph 19.6 mph 0.10 in Rain Rain
2:01 PM 44.6 °F 38.1 °F 44.6 °F 100% 29.58 in 2.5 mi East 13.8 mph 19.6 mph N/A Rain Rain
2:07 PM 44.6 °F 37.2 °F 44.6 °F 100% 29.57 in 1.8 mi East 17.3 mph 23.0 mph N/A Rain Rain
2:19 PM 46.4 °F 39.5 °F 46.4 °F 100% 29.54 in 2.0 mi East 17.3 mph - N/A Rain Rain
2:25 PM 46.4 °F 40.1 °F 46.4 °F 100% 29.53 in 3.0 mi East 15.0 mph 24.2 mph N/A Rain Light Rain
2:37 PM 46.4 °F 40.1 °F 46.4 °F 100% 29.52 in 3.0 mi East 15.0 mph 20.7 mph N/A Rain Light Rain
2:40 PM 46.4 °F 40.4 °F 46.4 °F 100% 29.51 in 2.5 mi East 13.8 mph 20.7 mph N/A Rain Rain
2:58 PM 47.1 °F - 46.8 °F 99% 29.50 in 2.5 mi East 12.7 mph 23.0 mph 0.21 in Rain Light Rain
3:01 PM 48.2 °F - 46.4 °F 93% 29.48 in 1.5 mi ESE 15.0 mph 23.0 mph N/A Rain Heavy Rain
3:04 PM 48.2 °F - 46.4 °F 93% 29.47 in 1.2 mi East 18.4 mph 24.2 mph N/A Rain Heavy Rain
3:10 PM 48.2 °F - 48.2 °F 100% 29.47 in 1.5 mi East 12.7 mph 24.2 mph N/A Rain Light Rain
3:13 PM 48.2 °F - 48.2 °F 100% 29.47 in 2.0 mi East 13.8 mph 24.2 mph N/A Rain Rain
3:19 PM 48.2 °F - 48.2 °F 100% 29.46 in 3.0 mi East 12.7 mph 20.7 mph N/A Rain Light Rain
3:31 PM 48.2 °F - 48.2 °F 100% 29.45 in 2.5 mi East 9.2 mph 18.4 mph N/A Rain Light Rain
3:40 PM 48.2 °F - 48.2 °F 100% 29.44 in 4.0 mi East 8.1 mph - N/A Rain Light Rain
3:58 PM 48.9 °F - 48.7 °F 99% 29.45 in 4.0 mi NW 8.1 mph - 0.11 in Rain Light Rain
4:10 PM 48.2 °F - 48.2 °F 100% 29.45 in 2.5 mi WNW 10.4 mph - N/A Rain Heavy Rain
4:19 PM 48.2 °F - 48.2 °F 100% 29.44 in 3.0 mi NNW 5.8 mph - N/A Rain Heavy Rain
4:28 PM 48.2 °F - 48.2 °F 100% 29.42 in 5.0 mi Variable 2.3 mph - N/A Rain Light Rain
4:31 PM 48.2 °F - 48.2 °F 100% 29.41 in 7.0 mi Variable 1.2 mph - N/A Rain Light Rain
4:56 PM 50.0 °F - 50.0 °F 100% 29.41 in 10.0 mi South 9.2 mph - N/A   Overcast
4:58 PM 50.4 °F - 50.2 °F 99% 29.42 in 10.0 mi South 9.2 mph - 0.07 in   Overcast
5:01 PM 50.0 °F - 50.0 °F 100% 29.41 in 10.0 mi SSW 6.9 mph - N/A   Overcast
5:31 PM 51.8 °F - 51.8 °F 100% 29.41 in 10.0 mi SW 17.3 mph 21.9 mph N/A   Overcast
5:49 PM 51.8 °F - 51.8 °F 100% 29.43 in 10.0 mi WSW 15.0 mph 24.2 mph N/A   Overcast
5:55 PM 51.8 °F - 50.0 °F 94% 29.44 in 10.0 mi West 13.8 mph 25.3 mph N/A   Overcast
5:58 PM 50.9 °F - 50.7 °F 99% 29.45 in 9.0 mi West 15.0 mph 25.3 mph 0.00 in   Overcast
6:01 PM 50.0 °F - 50.0 °F 100% 29.45 in 8.0 mi WSW 12.7 mph 25.3 mph N/A   Overcast
6:19 PM 48.2 °F - 48.2 °F 100% 29.46 in 8.0 mi West 12.7 mph - N/A   Overcast
6:28 PM 48.2 °F - 46.4 °F 93% 29.47 in 9.0 mi West 11.5 mph - N/A   Overcast
6:37 PM 46.4 °F 40.7 °F 46.4 °F 100% 29.48 in 10.0 mi West 12.7 mph - N/A   Overcast
6:58 PM 46.2 °F 39.5 °F 45.9 °F 99% 29.51 in 10.0 mi West 16.1 mph 23.0 mph N/A   Overcast
7:07 PM 44.6 °F 37.8 °F 44.6 °F 100% 29.52 in 10.0 mi West 15.0 mph 24.2 mph N/A   Overcast
7:58 PM 42.8 °F 35.1 °F 41.0 °F 93% 29.60 in 10.0 mi West 16.1 mph 24.2 mph N/A   Overcast
8:13 PM 42.8 °F 35.1 °F 41.0 °F 93% 29.60 in 10.0 mi WNW 16.1 mph 27.6 mph N/A   Overcast
8:37 PM 42.8 °F 34.8 °F 41.0 °F 93% 29.62 in 10.0 mi WNW 17.3 mph - N/A   Overcast
8:40 PM 42.8 °F 35.1 °F 39.2 °F 87% 29.63 in 10.0 mi WNW 16.1 mph - N/A   Overcast
8:43 PM 42.8 °F 35.8 °F 39.2 °F 87% 29.63 in 10.0 mi WNW 13.8 mph - N/A   Overcast
8:52 PM 42.8 °F 35.4 °F 39.2 °F 87% 29.63 in 10.0 mi WNW 15.0 mph 21.9 mph N/A   Overcast
8:58 PM 42.3 °F 35.1 °F 39.7 °F 91% 29.65 in 10.0 mi WNW 13.8 mph 21.9 mph N/A   Overcast
9:01 PM 42.8 °F 36.6 °F 39.2 °F 87% 29.63 in 10.0 mi WNW 11.5 mph 21.9 mph N/A   Overcast
9:58 PM 41.4 °F 35.7 °F 38.8 °F 91% 29.68 in 10.0 mi West 9.2 mph - N/A   Clear
10:58 PM 41.0 °F 34.7 °F 38.3 °F 90% 29.73 in 10.0 mi West 10.4 mph - N/A   Clear
11:58 PM 40.1 °F 34.7 °F 37.2 °F 89% 29.73 in 10.0 mi West 8.1 mph - N/A   Clear